[[{"header":{"parameterUnit":"m.s-1","parameterCategory":2,"la1":30.2991,"la2":30.254,"lo1":-89.0895,"lo2":-89.0444,"dy":0.0017,"dx":0.0017,"nx":28,"ny":28,"refTime":"2024-08-05T21:00:00:Z","depth":"0","parameterNumber":2,"parameterNumberName":"U-component_of_CURRENTS"},"data":[0,0,0,0,0,0,0,0,0,0,0,0,0,0,0,0,0,0,0,0,0,0,0,0,0,0,0,0,0,0,0,0,0,0,0,0,0,0,0,0,0,0,0,0,0,0,0,0,0,0,0,0,0,0,0,0,0,0,0.3379,0.3377,0,0.3202,0.3199,0.3197,0.3217,0.322,0.3222,0.3225,0.3119,0.3113,0.3108,0,0,0,0,0,0,0,0,0,0,0,0,0,0.3583,0.358,0.3379,0.3377,0.3375,0.3202,0.3199,0.3197,0.3216,0.322,0.3223,0.3226,0.312,0.3114,0.3107,0,0,0,0,0,0,0,0,0,0,0,0,0,0.3459,0.3579,0.3379,0.3364,0.3361,0.3202,0.3199,0.3196,0.3216,0.322,0.3224,0.3228,0.3123,0.3115,0.3106,0.2969,0,0,0.3081,0.3078,0,0,0,0,0,0,0,0,0.3466,0.3451,0.3368,0.3365,0.3361,0.3236,0.3232,0.3124,0.3214,0.327,0.3225,0.323,0.3162,0.315,0.3106,0.2964,0.296,0.308,0.3075,0.3072,0.3069,0,0,0,0,0,0,0,0.3475,0.3458,0.3308,0.3366,0.3361,0.3314,0.3302,0.321,0.3195,0.3266,0.3267,0.3246,0.3161,0.3113,0.3104,0.2958,0.3081,0.3073,0.3068,0.3065,0.2761,0.2758,0,0,0,0,0,0,0.35,0.3466,0.3314,0.3303,0.3426,0.3307,0.3294,0.3271,0.3194,0.3186,0.3243,0.3248,0.3125,0.3113,0.31,0.2985,0.3072,0.3064,0.3059,0.2764,0.276,0.2757,0,0,0,0,0,0,0.3505,0.3488,0.3321,0.3382,0.3358,0.3301,0.3274,0.3266,0.3225,0.3176,0.3171,0.3213,0.3128,0.3112,0.3009,0.2981,0.306,0.3053,0.2768,0.2763,0.2759,0.2723,0,0,0,0,0,0,0.3511,0.349,0.3469,0.3383,0.3355,0.3195,0.3269,0.3259,0.3206,0.3211,0.3147,0.3142,0.313,0.3021,0.3001,0.2971,0.3046,0.2772,0.2766,0.276,0.2728,0.2718,0.2709,0,0,0,0,0,0.3519,0.3449,0.3469,0.345,0.3332,0.3191,0.3169,0.3145,0.32,0.3134,0.3119,0.3144,0.2972,0.301,0.2987,0.2955,0.2775,0.2768,0.2761,0.2733,0.272,0.2709,0,0,0,0,0,0,0.3488,0.3442,0.3462,0.3376,0.3287,0.3194,0.3118,0.3129,0.306,0.3079,0.3076,0.3063,0.2973,0.2945,0.2989,0.2849,0.2886,0.2874,0.2873,0.286,0.2851,0.2868,0.304,0,0,0,0,0,0.3483,0.3437,0.337,0.3288,0.3245,0.3189,0.3133,0.312,0.3054,0.303,0.2998,0.2964,0.2915,0.2878,0.2815,0.2708,0.272,0.2678,0.2669,0.2661,0.2657,0.263,0.2619,0.2734,0.2734,0.2734,0,0,0.3438,0.341,0.3378,0.3282,0.3213,0.3127,0.3162,0.3053,0.3016,0.3023,0.2944,0.2913,0.2876,0.2781,0.274,0.2762,0.2635,0.2652,0.2647,0.2646,0.2622,0.2611,0.2602,0.2729,0.273,0.2731,0,0,0.3294,0.3304,0.3207,0.3154,0.3062,0.3045,0.3019,0.2929,0.2922,0.2826,0.2855,0.2801,0.2697,0.2677,0.2659,0.2542,0.2584,0.253,0.2492,0.2466,0.2458,0.245,0.247,0.2465,0.2527,0.2527,0.2527,0,0.3235,0.3156,0.3141,0.3042,0.3018,0.3017,0.2926,0.2889,0.2791,0.2775,0.2797,0.2674,0.2653,0.2574,0.256,0.2525,0.2534,0.255,0.2458,0.2451,0.2444,0.2466,0.2461,0.2525,0.2525,0.2525,0.2525,0,0.3039,0.299,0.2915,0.285,0.2801,0.2717,0.2705,0.2663,0.2689,0.2667,0.2585,0.2541,0.2485,0.2471,0.2487,0.2422,0.2454,0.2455,0.2502,0.2432,0.2458,0.2454,0.2521,0.2522,0.2523,0.2523,0,0,0.2881,0.2802,0.2782,0.2765,0.273,0.2663,0.2623,0.2575,0.2548,0.2491,0.2438,0.2381,0.2384,0.2363,0.2366,0.2349,0.2333,0.2389,0.2389,0.2436,0.231,0.2222,0.221,0.2325,0.2323,0.2321,0.2358,0,0.274,0.2583,0.2596,0.2492,0.2434,0.2487,0.2447,0.2422,0.2416,0.2354,0.235,0.2285,0.2338,0.2313,0.2304,0.2324,0.2315,0.2325,0.2348,0.235,0.2301,0.2198,0.2072,0.2082,0.2353,0.2353,0.2352,0,0.2577,0.2513,0.2388,0.2385,0.2359,0.2314,0.2317,0.2277,0.2234,0.2227,0.2188,0.2179,0.2163,0.2202,0.2221,0.2231,0.2268,0.2287,0.2288,0.2213,0.2249,0.2187,0.2063,0.2038,0.2345,0.2346,0.2346,0,0.2519,0.2404,0.2335,0.2322,0.2273,0.2255,0.2254,0.2222,0.2189,0.2146,0.2111,0.2088,0.2083,0.2108,0.2192,0.2203,0.2211,0.2228,0.2179,0.2177,0.2073,0.2062,0.1943,0.2211,0.2211,0.2211,0.2211,0,0.243,0.2375,0.2299,0.2255,0.2187,0.2191,0.2121,0.2121,0.2071,0.2025,0.2043,0.2014,0.206,0.2081,0.2149,0.2157,0.2187,0.2147,0.2153,0.2056,0.2043,0.2021,0.2027,0.2212,0.2212,0.2212,0.2211,0,0.2391,0.2334,0.2248,0.2174,0.2151,0.2108,0.206,0.2004,0.1992,0.1936,0.1927,0.1953,0.1987,0.2025,0.2076,0.2095,0.204,0.2112,0.2017,0.2006,0.1877,0.1886,0.1692,0.1656,0.2024,0.2022,0.202,0,0.2366,0.2306,0.219,0.2131,0.2097,0.2032,0.1984,0.1965,0.1926,0.192,0.1896,0.1897,0.1899,0.1927,0.1932,0.1955,0.1954,0.1865,0.1824,0.1815,0.1832,0.1781,0.1764,0.1706,0.1701,0.1698,0.1695,0,0.2329,0.2279,0.2201,0.2076,0.2006,0.1929,0.1879,0.1832,0.1831,0.18,0.1804,0.1796,0.179,0.1736,0.1736,0.1751,0.1732,0.1786,0.1783,0.1549,0.1478,0.1466,0.1794,0.1663,0.1666,0.1668,0.167,0.1671,0.2309,0.2251,0.2134,0.2021,0.194,0.1848,0.1777,0.1747,0.169,0.1643,0.1713,0.1659,0.1613,0.1558,0.1563,0.1452,0.149,0.1406,0.1422,0.1377,0.1287,0.1548,0.1407,0.1408,0.141,0.1411,0.1412,0,0.2258,0.2183,0.2089,0.1938,0.1835,0.1806,0.1713,0.1637,0.1577,0.1549,0.1529,0.1424,0.1338,0.1297,0.1188,0.1125,0.1097,0.11,0.1022,0.1032,0.1266,0.1197,0.0991,0.0991,0.0992,0.0992,0.0992,0.0992,0.2208,0.2096,0.2036,0.1854,0.1763,0.1614,0.1547,0.1466,0.141,0.1284,0.1188,0.1165,0.1123,0.1019,0.092,0.0903,0.0881,0.077,0.0855,0.1057,0.1089,0.1119,0.1054,0.0822,0.0822,0.0549,0.0547,0.0546]},{"header":{"parameterUnit":"m.s-1","parameterCategory":2,"la1":30.2991,"la2":30.254,"lo1":-89.0895,"lo2":-89.0444,"dy":0.0017,"dx":0.0017,"nx":28,"ny":28,"refTime":"2024-08-05T21:00:00:Z","depth":"0","parameterNumber":3,"parameterNumberName":"V-component_of_CURRENTS"},"data":[0,0,0,0,0,0,0,0,0,0,0,0,0,0,0,0,0,0,0,0,0,0,0,0,0,0,0,0,0,0,0,0,0,0,0,0,0,0,0,0,0,0,0,0,0,0,0,0,0,0,0,0,0,0,0,0,0,0,-0.1461,-0.1458,0,-0.1235,-0.1233,-0.1231,-0.1191,-0.1192,-0.1194,-0.1195,-0.1126,-0.1123,-0.112,0,0,0,0,0,0,0,0,0,0,0,0,0,-0.175,-0.1746,-0.1461,-0.1458,-0.1454,-0.1235,-0.1232,-0.123,-0.1191,-0.1192,-0.1194,-0.1196,-0.1127,-0.1123,-0.1119,0,0,0,0,0,0,0,0,0,0,0,0,0,-0.1591,-0.1745,-0.1462,-0.1404,-0.1396,-0.1235,-0.1232,-0.1229,-0.1191,-0.1192,-0.1194,-0.1196,-0.1128,-0.1123,-0.1119,-0.1052,0,0,-0.1105,-0.1103,0,0,0,0,0,0,0,0,-0.16,-0.1581,-0.1416,-0.1407,-0.1398,-0.1237,-0.1308,-0.1175,-0.119,-0.1275,-0.1195,-0.1197,-0.1172,-0.1164,-0.1124,-0.1048,-0.1045,-0.1104,-0.1102,-0.11,-0.1098,0,0,0,0,0,0,0,-0.1611,-0.159,-0.1378,-0.1412,-0.1401,-0.135,-0.1332,-0.1282,-0.1224,-0.1268,-0.1263,-0.1227,-0.1169,-0.1128,-0.1122,-0.1044,-0.1105,-0.11,-0.1098,-0.1096,-0.0983,-0.0982,0,0,0,0,0,0,-0.1628,-0.16,-0.1385,-0.1371,-0.1498,-0.1344,-0.1323,-0.1292,-0.122,-0.1208,-0.1225,-0.1225,-0.1135,-0.1128,-0.112,-0.1069,-0.11,-0.1095,-0.1093,-0.0983,-0.0983,-0.0982,0,0,0,0,0,0,-0.1636,-0.1612,-0.1394,-0.1475,-0.1443,-0.1337,-0.1302,-0.1287,-0.1243,-0.1185,-0.1178,-0.1198,-0.1136,-0.1126,-0.109,-0.1066,-0.1093,-0.1089,-0.0983,-0.0983,-0.0982,-0.0948,0,0,0,0,0,0,-0.1645,-0.1616,-0.1601,-0.1476,-0.1439,-0.1287,-0.1299,-0.1281,-0.1215,-0.1213,-0.1158,-0.1154,-0.1137,-0.1097,-0.1086,-0.106,-0.1086,-0.0984,-0.0983,-0.0983,-0.0949,-0.0946,-0.0944,0,0,0,0,0,-0.1656,-0.1598,-0.1602,-0.1575,-0.1422,-0.1284,-0.126,-0.1196,-0.1212,-0.1172,-0.1164,-0.1156,-0.1087,-0.1092,-0.1079,-0.1052,-0.0984,-0.0983,-0.0983,-0.0951,-0.0947,-0.0944,0,0,0,0,0,0,-0.1684,-0.1585,-0.1587,-0.1497,-0.1405,-0.1275,-0.121,-0.119,-0.1145,-0.1154,-0.1137,-0.113,-0.1097,-0.1079,-0.1086,-0.1023,-0.1039,-0.1035,-0.1019,-0.1015,-0.1012,-0.0956,-0.1082,0,0,0,0,0,-0.1693,-0.1643,-0.1538,-0.1463,-0.1415,-0.1325,-0.1264,-0.1225,-0.116,-0.1141,-0.1117,-0.1099,-0.1078,-0.1054,-0.1032,-0.0975,-0.092,-0.0957,-0.0954,-0.0951,-0.0899,-0.0796,-0.0778,-0.098,-0.098,-0.098,0,0,-0.1672,-0.1617,-0.1581,-0.1469,-0.139,-0.1302,-0.1293,-0.1184,-0.1138,-0.1141,-0.1087,-0.1087,-0.1067,-0.1023,-0.1005,-0.1003,-0.0874,-0.0951,-0.0948,-0.0896,-0.0793,-0.0773,-0.0755,-0.098,-0.098,-0.098,0,0,-0.1575,-0.1564,-0.1479,-0.142,-0.131,-0.1265,-0.124,-0.113,-0.1112,-0.1058,-0.1069,-0.1038,-0.1005,-0.0968,-0.0953,-0.0911,-0.0874,-0.0935,-0.0851,-0.0753,-0.0734,-0.0716,-0.0653,-0.0629,-0.0919,-0.0919,-0.0919,0,-0.1548,-0.1455,-0.1426,-0.1337,-0.1281,-0.1255,-0.1155,-0.1123,-0.1032,-0.1003,-0.1045,-0.0965,-0.0964,-0.0877,-0.0883,-0.0896,-0.0851,-0.0866,-0.0744,-0.0725,-0.0707,-0.0646,-0.0621,-0.0918,-0.0918,-0.0918,-0.0918,0,-0.14,-0.1335,-0.127,-0.1186,-0.1129,-0.1034,-0.0998,-0.0964,-0.0971,-0.0937,-0.0874,-0.0864,-0.0802,-0.0823,-0.0842,-0.0724,-0.074,-0.0762,-0.0743,-0.0684,-0.0625,-0.0599,-0.0915,-0.0916,-0.0916,-0.0917,0,0,-0.1287,-0.1187,-0.1164,-0.1121,-0.1054,-0.0978,-0.0931,-0.0848,-0.0796,-0.0775,-0.068,-0.0674,-0.0664,-0.0644,-0.0659,-0.0584,-0.0461,-0.0619,-0.0615,-0.0538,-0.0259,-0.0312,-0.0289,-0.0464,-0.0459,-0.0454,-0.0279,0,-0.1167,-0.1008,-0.0998,-0.087,-0.0785,-0.0796,-0.0749,-0.0701,-0.0684,-0.0604,-0.0589,-0.0522,-0.0601,-0.0566,-0.0503,-0.0466,-0.0386,-0.0507,-0.0341,-0.0335,-0.0373,-0.0257,-0.0287,-0.0136,-0.0254,-0.025,-0.0246,0,-0.1027,-0.0941,-0.0793,-0.0725,-0.0687,-0.0634,-0.0564,-0.0517,-0.0444,-0.0425,-0.0356,-0.0349,-0.0245,-0.0328,-0.0184,-0.0261,-0.0241,-0.0223,-0.0216,-0.0241,-0.0337,-0.0208,-0.0084,-0.0118,-0.0206,-0.0209,-0.0212,0,-0.0958,-0.0814,-0.0708,-0.0678,-0.0584,-0.0539,-0.0508,-0.0447,-0.0394,-0.029,-0.0226,-0.0133,-0.0057,-0.0006,-0.0014,-0.0073,0.014,0.0065,0.0046,0.004,0.0067,0.0055,0.0207,0.0208,0.0208,0.0207,0.0207,0,-0.0854,-0.0767,-0.0668,-0.0602,-0.0491,-0.0466,-0.0357,-0.0322,-0.0231,-0.0125,-0.0119,-0.0003,0.0031,0.0119,0.0093,0.0157,0.0232,0.0119,0.0113,0.0068,0.0054,0.0064,0.0025,0.0213,0.0212,0.0211,0.021,0,-0.0798,-0.0731,-0.0603,-0.0485,-0.0449,-0.0377,-0.0286,-0.0203,-0.0142,0.0008,0.0053,0.0153,0.026,0.0263,0.037,0.0311,0.0348,0.0354,0.0274,0.0255,0.0173,0.0136,0.0328,0.033,0.0396,0.0396,0.0396,0,-0.0764,-0.0677,-0.0526,-0.045,-0.0394,-0.0293,-0.0216,-0.0156,-0.0063,0.0104,0.0202,0.0333,0.0428,0.053,0.0471,0.0465,0.0408,0.042,0.0307,0.0227,0.0182,0.0155,0.014,0.0346,0.0346,0.0346,0.0345,0,-0.0681,-0.0626,-0.052,-0.0358,-0.0259,-0.0154,-0.0042,0.004,0.0142,0.0258,0.044,0.0525,0.0589,0.0586,0.0533,0.0495,0.0388,0.0414,0.0393,0.0235,0.0165,0.0141,0.0137,0.0344,0.0344,0.0344,0.0344,0.0344,-0.0632,-0.0546,-0.0394,-0.0254,-0.0142,-0.0003,0.0085,0.0203,0.035,0.0527,0.0594,0.07,0.0651,0.0572,0.0521,0.0385,0.0393,0.0324,0.031,0.0309,0.0252,0.022,0.0363,0.0363,0.0363,0.0364,0.0364,0,-0.0529,-0.0423,-0.0293,-0.011,0.0019,0.0057,0.0221,0.0308,0.048,0.0605,0.073,0.0735,0.0661,0.0552,0.038,0.0296,0.0262,0.0256,0.0231,0.0239,0.0283,0.0215,0.0257,0.0257,0.0257,0.0257,0.0257,0.0257,-0.0455,-0.0293,-0.022,0.0016,0.0125,0.0286,0.0375,0.0487,0.0578,0.0715,0.0749,0.0769,0.0689,0.0435,0.0275,0.0232,0.0195,0.0168,0.0184,0.019,0.0195,0.0199,0.0129,0.0152,0.0152,0.0138,0.0138,0.0138]}],[{"header":{"parameterUnit":"m.s-1","parameterCategory":2,"la1":30.2991,"la2":30.254,"lo1":-89.0895,"lo2":-89.0444,"dy":0.0017,"dx":0.0017,"nx":28,"ny":28,"refTime":"2024-08-05T21:00:00:Z","depth":"2","parameterNumber":2,"parameterNumberName":"U-component_of_CURRENTS"},"data":[0,0,0,0,0,0,0,0,0,0,0,0,0,0,0,0,0,0,0,0,0,0,0,0,0,0,0,0,0,0,0,0,0,0,0,0,0,0,0,0,0,0,0,0,0,0,0,0,0,0,0,0,0,0,0,0,0,0,0.1205,0.1204,0,0.126,0.1261,0.1263,0.1339,0.1339,0.1339,0.1339,0.136,0.1361,0.1361,0,0,0,0,0,0,0,0,0,0,0,0,0,0.1214,0.1215,0.1205,0.1204,0.1204,0.1259,0.1261,0.1263,0.1339,0.1339,0.1339,0.1339,0.136,0.1361,0.1361,0,0,0,0,0,0,0,0,0,0,0,0,0,0.1246,0.1215,0.1205,0.1239,0.1241,0.1259,0.1261,0.1264,0.1338,0.1339,0.1339,0.1339,0.136,0.1361,0.1361,0.1362,0,0,0.1363,0.1364,0,0,0,0,0,0,0,0,0.1244,0.1247,0.1234,0.1236,0.1239,0.1281,0.1272,0.1291,0.1338,0.1315,0.1339,0.1339,0.1322,0.1326,0.1355,0.1363,0.1364,0.1363,0.1364,0.1364,0.1364,0,0,0,0,0,0,0,0.1242,0.1245,0.1239,0.1233,0.1236,0.1267,0.1273,0.1277,0.1326,0.1317,0.132,0.1305,0.1325,0.1354,0.1355,0.1365,0.1363,0.1364,0.1364,0.1365,0.1327,0.1325,0,0,0,0,0,0,0.1206,0.1243,0.1237,0.124,0.1228,0.1265,0.1273,0.1278,0.1327,0.1331,0.1305,0.1308,0.1353,0.1354,0.1356,0.1359,0.1364,0.1365,0.1365,0.1328,0.1326,0.1325,0,0,0,0,0,0,0.1207,0.1206,0.1235,0.1231,0.1235,0.1263,0.127,0.1279,0.133,0.1316,0.1322,0.1348,0.1353,0.1355,0.1356,0.136,0.1365,0.1366,0.133,0.1328,0.1326,0.1364,0,0,0,0,0,0,0.1207,0.1207,0.1215,0.1229,0.1234,0.1259,0.1269,0.1279,0.1313,0.1319,0.1354,0.1355,0.1353,0.1354,0.1356,0.1361,0.1366,0.1332,0.1329,0.1326,0.1364,0.1363,0.1362,0,0,0,0,0,0.1208,0.1226,0.1216,0.1215,0.124,0.1258,0.1267,0.1295,0.1315,0.1344,0.1345,0.1355,0.1338,0.1354,0.1357,0.1362,0.1333,0.133,0.1327,0.1365,0.1363,0.1362,0,0,0,0,0,0,0.1239,0.1233,0.1224,0.124,0.1245,0.1267,0.1303,0.1309,0.1342,0.1349,0.1351,0.1351,0.1365,0.1341,0.1359,0.1334,0.1332,0.1329,0.136,0.1358,0.1357,0.1397,0.1367,0,0,0,0,0,0.1241,0.1254,0.1244,0.1257,0.1272,0.1291,0.1308,0.1312,0.1326,0.1346,0.1366,0.136,0.135,0.1337,0.1345,0.1327,0.1348,0.1322,0.1321,0.132,0.1349,0.1379,0.1386,0.1314,0.1314,0.1314,0,0,0.1244,0.1249,0.1251,0.1263,0.1289,0.1288,0.131,0.1336,0.1325,0.1337,0.137,0.1384,0.1351,0.1345,0.1342,0.1323,0.1345,0.1316,0.1317,0.1346,0.1377,0.1385,0.1392,0.1312,0.1313,0.1313,0,0,0.1239,0.1284,0.1276,0.1291,0.1301,0.1313,0.132,0.1351,0.1372,0.137,0.138,0.1395,0.1379,0.1368,0.1347,0.1337,0.1363,0.1324,0.1331,0.136,0.1368,0.1375,0.1397,0.1406,0.1294,0.1295,0.1295,0,0.1234,0.1238,0.1278,0.1276,0.1287,0.1322,0.1312,0.1332,0.1349,0.1363,0.1375,0.1392,0.1388,0.1361,0.1363,0.1342,0.1364,0.1346,0.1365,0.1372,0.1379,0.1401,0.141,0.1296,0.1296,0.1296,0.1296,0,0.121,0.1222,0.1244,0.1245,0.1259,0.1283,0.1286,0.1324,0.1353,0.1355,0.1384,0.1391,0.1393,0.1386,0.1376,0.1404,0.1406,0.139,0.1384,0.139,0.141,0.142,0.1298,0.1297,0.1297,0.1297,0,0,0.1167,0.121,0.1222,0.1214,0.1256,0.1258,0.1275,0.1292,0.1306,0.1339,0.1362,0.1369,0.141,0.1392,0.139,0.1417,0.1488,0.1431,0.1431,0.1482,0.1562,0.144,0.1438,0.1487,0.1489,0.149,0.1553,0,0.1137,0.1135,0.1165,0.1158,0.1157,0.1216,0.1225,0.1239,0.1278,0.132,0.1344,0.1374,0.1388,0.141,0.1438,0.1493,0.1518,0.1474,0.1524,0.1525,0.1441,0.1446,0.1326,0.1361,0.1562,0.1564,0.1565,0,0.1069,0.1098,0.1091,0.1114,0.1126,0.1128,0.1185,0.1192,0.1253,0.1292,0.1338,0.1374,0.143,0.1444,0.1533,0.151,0.1551,0.1586,0.1587,0.1477,0.1421,0.1386,0.1371,0.1581,0.158,0.1578,0.1577,0,0.1004,0.1023,0.1029,0.1044,0.1085,0.1104,0.114,0.119,0.123,0.1299,0.1355,0.1395,0.1449,0.1509,0.1578,0.1574,0.1681,0.1662,0.1584,0.1576,0.1484,0.1463,0.1735,0.1734,0.1734,0.1734,0.1734,0,0.0955,0.0963,0.1002,0.1028,0.1039,0.106,0.1102,0.1153,0.1233,0.1298,0.1349,0.1404,0.1483,0.154,0.1591,0.1609,0.1678,0.1606,0.1587,0.1485,0.1464,0.1663,0.1653,0.1736,0.1736,0.1736,0.1735,0,0.0901,0.0927,0.0934,0.0995,0.1009,0.1025,0.1122,0.116,0.1237,0.1335,0.1374,0.1446,0.1505,0.155,0.1639,0.1613,0.1648,0.1635,0.1502,0.1464,0.1526,0.1518,0.1559,0.1556,0.1553,0.155,0.1548,0,0.0878,0.0864,0.0932,0.0956,0.1005,0.1044,0.1088,0.1167,0.123,0.1359,0.141,0.1475,0.1495,0.1529,0.1504,0.1513,0.1588,0.1397,0.1351,0.1533,0.1511,0.1508,0.1503,0.1253,0.1248,0.1245,0.1242,0,0.0839,0.0864,0.091,0.0991,0.103,0.1082,0.1161,0.1194,0.13,0.1355,0.1424,0.1436,0.1437,0.1342,0.1314,0.131,0.1375,0.1317,0.1569,0.1288,0.1241,0.1219,0.1227,0.1209,0.1213,0.1215,0.1217,0.1218,0.0831,0.0858,0.0935,0.0994,0.1058,0.1132,0.1137,0.1202,0.1252,0.1294,0.1358,0.1308,0.1283,0.1135,0.1102,0.1063,0.1158,0.1117,0.1131,0.1148,0.1073,0.102,0.0935,0.0936,0.0938,0.0939,0.094,0,0.082,0.0876,0.0938,0.1013,0.108,0.1141,0.1188,0.1151,0.1138,0.1179,0.1174,0.1045,0.0946,0.0934,0.0816,0.0786,0.0812,0.076,0.0802,0.0833,0.0861,0.0774,0.0555,0.0554,0.0553,0.0552,0,0,0.0831,0.0881,0.0914,0.1,0.107,0.1099,0.11,0.1035,0.1014,0.0941,0.0886,0.0904,0.0905,0.0735,0.0694,0.061,0.0726,0.0581,0.0887,0.0969,0.0996,0.1057,0.0955,0,0,0,0,0]},{"header":{"parameterUnit":"m.s-1","parameterCategory":2,"la1":30.2991,"la2":30.254,"lo1":-89.0895,"lo2":-89.0444,"dy":0.0017,"dx":0.0017,"nx":28,"ny":28,"refTime":"2024-08-05T21:00:00:Z","depth":"2","parameterNumber":3,"parameterNumberName":"V-component_of_CURRENTS"},"data":[0,0,0,0,0,0,0,0,0,0,0,0,0,0,0,0,0,0,0,0,0,0,0,0,0,0,0,0,0,0,0,0,0,0,0,0,0,0,0,0,0,0,0,0,0,0,0,0,0,0,0,0,0,0,0,0,0,0,0.0314,0.0314,0,0.0264,0.0263,0.0262,0.0227,0.0227,0.0228,0.0228,0.0187,0.0186,0.0184,0,0,0,0,0,0,0,0,0,0,0,0,0,0.028,0.0281,0.0314,0.0314,0.0314,0.0264,0.0263,0.0262,0.0227,0.0227,0.0228,0.0228,0.0187,0.0186,0.0184,0,0,0,0,0,0,0,0,0,0,0,0,0,0.0266,0.0281,0.0314,0.0293,0.0291,0.0264,0.0263,0.0262,0.0227,0.0227,0.0228,0.0228,0.0187,0.0186,0.0184,0.0172,0,0,0.0179,0.0178,0,0,0,0,0,0,0,0,0.0267,0.0267,0.0296,0.0294,0.0292,0.0255,0.0236,0.0233,0.0227,0.0248,0.0228,0.0228,0.0213,0.0209,0.0194,0.017,0.0168,0.0179,0.0178,0.0177,0.0177,0,0,0,0,0,0,0,0.0268,0.0268,0.0291,0.0296,0.0293,0.0252,0.025,0.0235,0.0228,0.0246,0.0244,0.0244,0.0211,0.0196,0.0193,0.0168,0.0179,0.0177,0.0176,0.0176,0.0145,0.0146,0,0,0,0,0,0,0.0286,0.027,0.0292,0.029,0.0283,0.0253,0.0251,0.0264,0.0228,0.0223,0.0244,0.0243,0.0199,0.0195,0.0192,0.0173,0.0177,0.0175,0.0174,0.0145,0.0145,0.0146,0,0,0,0,0,0,0.0286,0.029,0.0295,0.028,0.0278,0.0255,0.0268,0.0263,0.0222,0.0227,0.0222,0.0206,0.0199,0.0194,0.0176,0.0171,0.0175,0.0173,0.0145,0.0145,0.0146,0.0137,0,0,0,0,0,0,0.0286,0.029,0.0271,0.0282,0.028,0.026,0.0269,0.0262,0.0225,0.0222,0.0193,0.0191,0.0198,0.0179,0.0174,0.0169,0.0172,0.0145,0.0145,0.0145,0.0137,0.0137,0.0137,0,0,0,0,0,0.0285,0.0253,0.0271,0.0272,0.0267,0.026,0.0253,0.0234,0.0223,0.0197,0.0196,0.019,0.0179,0.0177,0.0172,0.0166,0.0144,0.0145,0.0145,0.0137,0.0137,0.0137,0,0,0,0,0,0,0.0215,0.0248,0.0267,0.0244,0.0251,0.0255,0.0207,0.0214,0.0188,0.0182,0.0185,0.0182,0.0157,0.0167,0.0165,0.0162,0.0163,0.0163,0.0159,0.0159,0.0159,0.0145,0.017,0,0,0,0,0,0.0201,0.0195,0.0225,0.0207,0.0198,0.0201,0.0182,0.0193,0.0188,0.0173,0.0164,0.0162,0.0158,0.0162,0.0148,0.0148,0.0155,0.0145,0.0145,0.0145,0.0132,0.0149,0.0149,0.0147,0.0147,0.0147,0,0,0.0181,0.0186,0.019,0.0192,0.0181,0.0196,0.0186,0.0164,0.0187,0.0175,0.0161,0.014,0.0151,0.0149,0.0142,0.0158,0.0152,0.0145,0.0145,0.0132,0.0149,0.0149,0.015,0.0148,0.0148,0.0148,0,0,0.0155,0.013,0.0132,0.0135,0.0135,0.0147,0.014,0.0143,0.0136,0.0144,0.0137,0.0115,0.0118,0.0125,0.0133,0.0124,0.0132,0.0123,0.0132,0.0149,0.0149,0.0149,0.0169,0.0171,0.0147,0.0147,0.0147,0,0.0127,0.0144,0.0125,0.0131,0.0134,0.013,0.0151,0.0148,0.0155,0.0146,0.0142,0.012,0.0112,0.0122,0.012,0.0121,0.0135,0.0131,0.0149,0.0149,0.0149,0.0169,0.0171,0.0147,0.0147,0.0147,0.0147,0,0.0123,0.0136,0.0117,0.0149,0.0145,0.0141,0.0169,0.0154,0.0148,0.0157,0.013,0.0122,0.0117,0.0111,0.0113,0.0111,0.012,0.0127,0.0146,0.0148,0.017,0.0172,0.0146,0.0147,0.0147,0.0147,0,0,0.0092,0.0117,0.0113,0.014,0.0153,0.0155,0.0173,0.0183,0.0182,0.0172,0.0175,0.0146,0.0116,0.0122,0.0115,0.0125,0.0132,0.0127,0.0128,0.0142,0.0174,0.0149,0.015,0.0146,0.0146,0.0146,0.0192,0,0.0101,0.0124,0.0136,0.0174,0.0194,0.0194,0.0212,0.0221,0.0212,0.0205,0.0184,0.0173,0.0138,0.0132,0.0131,0.0132,0.0136,0.0118,0.0173,0.0174,0.0148,0.015,0.0147,0.0184,0.0195,0.0195,0.0195,0,0.0128,0.0127,0.0163,0.0205,0.0205,0.0226,0.0225,0.0244,0.0236,0.0225,0.0204,0.0192,0.019,0.0164,0.017,0.0165,0.0154,0.0153,0.0156,0.0131,0.0152,0.0182,0.0188,0.0199,0.0199,0.0199,0.0198,0,0.0128,0.0168,0.0188,0.0197,0.0228,0.0231,0.0236,0.0235,0.024,0.0232,0.0244,0.0227,0.025,0.0226,0.0216,0.0201,0.023,0.0223,0.0186,0.0186,0.019,0.0189,0.0207,0.0207,0.0207,0.0207,0.0207,0,0.0143,0.0165,0.0188,0.018,0.02,0.0228,0.0231,0.0229,0.024,0.0267,0.0248,0.0287,0.0266,0.0286,0.0244,0.0232,0.0262,0.0176,0.0191,0.0188,0.0186,0.0201,0.02,0.0209,0.0208,0.0208,0.0208,0,0.0155,0.0171,0.0199,0.0202,0.0207,0.0214,0.0228,0.0242,0.0249,0.0297,0.0307,0.0349,0.038,0.035,0.0344,0.0293,0.0265,0.0244,0.0238,0.0249,0.0201,0.0199,0.0213,0.0213,0.0212,0.0212,0.0211,0,0.0169,0.0191,0.0188,0.0199,0.0195,0.0206,0.0228,0.0235,0.0272,0.0348,0.0399,0.0439,0.0478,0.0451,0.037,0.03,0.0282,0.0239,0.0185,0.0186,0.0199,0.0198,0.0197,0.0202,0.0202,0.0202,0.0201,0,0.0195,0.0193,0.0176,0.0191,0.0214,0.0241,0.0278,0.0314,0.037,0.0426,0.0533,0.0563,0.0539,0.0478,0.0364,0.0308,0.0245,0.0228,0.0257,0.0187,0.0175,0.0188,0.0188,0.0198,0.0199,0.0199,0.0199,0.0199,0.0199,0.02,0.019,0.0209,0.024,0.0304,0.0337,0.0406,0.0483,0.0586,0.062,0.0649,0.0573,0.0415,0.0329,0.0224,0.0227,0.0175,0.0177,0.0179,0.0155,0.0141,0.0155,0.0155,0.0155,0.0155,0.0155,0,0.0217,0.0219,0.0229,0.0256,0.0304,0.031,0.0403,0.0451,0.0569,0.0627,0.0686,0.0602,0.0516,0.0415,0.0254,0.016,0.0153,0.0129,0.0143,0.0146,0.0149,0.0124,0.0115,0.0115,0.0115,0.0114,0,0,0.0221,0.0236,0.0242,0.0325,0.0351,0.0427,0.0484,0.0552,0.0599,0.0658,0.0656,0.064,0.0525,0.04,0.0288,0.02,0.019,0.0178,0.0219,0.0251,0.0255,0.0184,0.0149,0,0,0,0,0]}],[{"header":{"parameterUnit":"m.s-1","parameterCategory":2,"la1":30.2991,"la2":30.254,"lo1":-89.0895,"lo2":-89.0444,"dy":0.0017,"dx":0.0017,"nx":28,"ny":28,"refTime":"2024-08-05T21:00:00:Z","depth":"4","parameterNumber":2,"parameterNumberName":"U-component_of_CURRENTS"},"data":[0,0,0,0,0,0,0,0,0,0,0,0,0,0,0,0,0,0,0,0,0,0,0,0,0,0,0,0,0,0,0,0,0,0,0,0,0,0,0,0,0,0,0,0,0,0,0,0,0,0,0,0,0,0,0,0,0,0,0.0019,0.002,0,0.0073,0.0073,0.0073,0.0089,0.0089,0.0089,0.0089,0.0153,0.0154,0.0156,0,0,0,0,0,0,0,0,0,0,0,0,0,-0.0094,-0.0092,0.0019,0.002,0.0021,0.0073,0.0073,0.0074,0.0089,0.0089,0.0089,0.0089,0.0152,0.0154,0.0156,0,0,0,0,0,0,0,0,0,0,0,0,0,-0.0046,-0.0091,0.0019,0.0037,0.004,0.0073,0.0073,0.0074,0.0089,0.0089,0.0089,0.0089,0.0152,0.0154,0.0157,0.0172,0,0,0.0164,0.0165,0,0,0,0,0,0,0,0,-0.0049,-0.0042,0.0034,0.0036,0.0039,0.0077,0.0057,0.0108,0.0089,0.0067,0.0089,0.0089,0.013,0.0135,0.014,0.0175,0.0178,0.0164,0.0166,0.0167,0.0168,0,0,0,0,0,0,0,-0.0052,-0.0045,0.0037,0.0035,0.0038,0.0035,0.0042,0.0066,0.0096,0.0069,0.0071,0.0082,0.0131,0.0138,0.0142,0.0179,0.0164,0.0167,0.0168,0.0169,0.0292,0.0294,0,0,0,0,0,0,-0.0051,-0.0047,0.0035,0.0039,-0.0002,0.0037,0.0045,0.0062,0.0095,0.0101,0.0082,0.0083,0.0133,0.0139,0.0144,0.0211,0.0167,0.0169,0.0171,0.029,0.0292,0.0294,0,0,0,0,0,0,-0.0053,-0.0043,0.0033,-0.0001,0.0009,0.004,0.0059,0.0063,0.0083,0.0106,0.0111,0.0099,0.0133,0.0141,0.0191,0.0212,0.0171,0.0173,0.0288,0.0291,0.0293,0.0316,0,0,0,0,0,0,-0.0057,-0.0045,-0.0034,-0.0001,0.0011,0.0067,0.006,0.0064,0.0091,0.0092,0.0122,0.0127,0.0134,0.0187,0.0194,0.0215,0.0175,0.0286,0.0289,0.0292,0.0313,0.0319,0.0324,0,0,0,0,0,-0.0061,-0.0042,-0.0033,-0.0023,0.0026,0.0068,0.0074,0.0093,0.0092,0.0108,0.0135,0.0127,0.0212,0.0191,0.0198,0.022,0.0284,0.0288,0.0292,0.031,0.0318,0.0324,0,0,0,0,0,0,-0.0089,-0.0037,-0.0027,0.0005,0.004,0.0072,0.009,0.0101,0.0133,0.0141,0.0151,0.0159,0.0205,0.0218,0.0195,0.0268,0.0246,0.0252,0.0258,0.0265,0.027,0.0294,0.0177,0,0,0,0,0,-0.0089,-0.0058,-0.0014,0.0012,0.0033,0.0062,0.0081,0.0101,0.0134,0.0147,0.0173,0.0202,0.0225,0.025,0.0272,0.032,0.0332,0.034,0.0345,0.035,0.0376,0.04,0.041,0.0307,0.0307,0.0307,0,0,-0.0097,-0.0061,-0.0047,0.0009,0.0035,0.0073,0.0073,0.0116,0.0144,0.0151,0.0202,0.022,0.024,0.0287,0.0309,0.0304,0.0387,0.0355,0.0358,0.0383,0.0405,0.0415,0.0424,0.031,0.0309,0.0309,0,0,-0.009,-0.0058,-0.0029,0.0011,0.0068,0.0088,0.0104,0.0155,0.0175,0.0227,0.0233,0.028,0.0318,0.0347,0.0359,0.0416,0.0407,0.0414,0.0472,0.0494,0.0502,0.051,0.0537,0.0547,0.0426,0.0426,0.0426,0,-0.0105,-0.0051,-0.0016,0.0032,0.0062,0.0097,0.0135,0.0164,0.0225,0.0246,0.0251,0.0328,0.0349,0.0403,0.043,0.0429,0.0438,0.0437,0.0499,0.0507,0.0514,0.054,0.0551,0.0428,0.0428,0.0427,0.0427,0,-0.0065,-0.002,0.0005,0.0072,0.0104,0.0151,0.0196,0.0232,0.0257,0.0288,0.0352,0.0396,0.0447,0.0455,0.0465,0.053,0.0518,0.0491,0.0476,0.0526,0.055,0.0561,0.043,0.0429,0.0429,0.0429,0,0,-0.0099,0.0007,0.0019,0.0051,0.0135,0.016,0.0212,0.0263,0.0294,0.0361,0.0412,0.0477,0.0513,0.0535,0.0555,0.0593,0.0655,0.0577,0.0578,0.0595,0.0709,0.0617,0.0619,0.0627,0.0629,0.063,0.0704,0,-0.0079,0.0002,0.0051,0.0114,0.0157,0.0204,0.0243,0.0294,0.0338,0.04,0.046,0.0518,0.0536,0.0572,0.0618,0.0641,0.0685,0.0639,0.0669,0.0671,0.0574,0.0629,0.0637,0.0712,0.0714,0.0716,0.0717,0,-0.0049,0.0002,0.007,0.0138,0.0158,0.0197,0.0257,0.0305,0.0391,0.0426,0.0509,0.0555,0.0655,0.0647,0.0742,0.0707,0.073,0.0743,0.0744,0.0663,0.0598,0.0655,0.0736,0.0735,0.0733,0.0732,0.0731,0,-0.0081,0.001,0.0056,0.0091,0.0176,0.0202,0.0245,0.032,0.0365,0.0465,0.0511,0.0611,0.0688,0.0726,0.0777,0.0764,0.0853,0.0826,0.0768,0.0761,0.081,0.0801,0.0893,0.0893,0.0893,0.0893,0.0893,0,-0.0066,-0.0034,0.0049,0.0084,0.0124,0.0192,0.0248,0.0297,0.0393,0.0455,0.0543,0.061,0.0713,0.0774,0.0794,0.0815,0.0867,0.0802,0.078,0.0818,0.0809,0.0817,0.0807,0.0895,0.0895,0.0894,0.0894,0,-0.0106,-0.004,0.0008,0.0093,0.0122,0.0152,0.025,0.0295,0.0383,0.0472,0.0513,0.0644,0.0722,0.0783,0.0859,0.084,0.0851,0.0839,0.0891,0.0866,0.0749,0.074,0.0804,0.0801,0.0799,0.0797,0.0796,0,-0.0114,-0.0086,-0.0003,0.0027,0.007,0.0133,0.0185,0.0285,0.0344,0.0478,0.0524,0.0641,0.0712,0.0769,0.0812,0.0837,0.0821,0.0825,0.0794,0.0771,0.0743,0.0737,0.0731,0.0792,0.0792,0.0791,0.0791,0,-0.0145,-0.0119,-0.008,-0.001,0.0048,0.0103,0.0192,0.0236,0.0358,0.0424,0.0538,0.0596,0.0685,0.0749,0.0769,0.0776,0.0818,0.0802,0.0807,0.0779,0.0758,0.0731,0.0727,0.0783,0.0784,0.0785,0.0786,0,-0.0179,-0.0169,-0.0104,-0.0041,0.0019,0.0091,0.013,0.0229,0.0308,0.0462,0.049,0.0597,0.0692,0.0716,0.0721,0.0728,0.0726,0.0701,0.0711,0.0719,0.065,0.0608,0.059,0,0,0,0,0,-0.0192,-0.0158,-0.0128,-0.004,0.001,0.0064,0.0152,0.0197,0.0313,0.0382,0.0444,0.0514,0.0576,0.0628,0.0621,0.0657,0.0706,0.0641,0.0676,0.0742,0.0751,0.0672,0,0,0,0,0,0,-0.0188,-0.016,-0.013,-0.0041,0.0014,0.0088,0.0147,0.021,0.0264,0.0366,0.0415,0.0468,0.0544,0.0585,0.0613,0.062,0.0625,0.0692,0.069,0.0737,0.0745,0.0752,0.0674,0,0,0,0,0]},{"header":{"parameterUnit":"m.s-1","parameterCategory":2,"la1":30.2991,"la2":30.254,"lo1":-89.0895,"lo2":-89.0444,"dy":0.0017,"dx":0.0017,"nx":28,"ny":28,"refTime":"2024-08-05T21:00:00:Z","depth":"4","parameterNumber":3,"parameterNumberName":"V-component_of_CURRENTS"},"data":[0,0,0,0,0,0,0,0,0,0,0,0,0,0,0,0,0,0,0,0,0,0,0,0,0,0,0,0,0,0,0,0,0,0,0,0,0,0,0,0,0,0,0,0,0,0,0,0,0,0,0,0,0,0,0,0,0,0,0.0557,0.0557,0,0.057,0.057,0.057,0.0567,0.0567,0.0567,0.0566,0.0521,0.052,0.0519,0,0,0,0,0,0,0,0,0,0,0,0,0,0.052,0.0521,0.0557,0.0557,0.0558,0.057,0.057,0.057,0.0567,0.0567,0.0566,0.0566,0.0522,0.052,0.0519,0,0,0,0,0,0,0,0,0,0,0,0,0,0.0534,0.0521,0.0557,0.0558,0.0559,0.057,0.057,0.057,0.0567,0.0567,0.0566,0.0566,0.0522,0.052,0.0519,0.0513,0,0,0.0514,0.0513,0,0,0,0,0,0,0,0,0.0533,0.0535,0.0558,0.0558,0.0559,0.0568,0.0541,0.0549,0.0567,0.0562,0.0566,0.0566,0.0532,0.053,0.0532,0.0511,0.0509,0.0514,0.0513,0.0512,0.0512,0,0,0,0,0,0,0,0.0532,0.0534,0.0561,0.0558,0.0559,0.0555,0.0557,0.0542,0.0546,0.0563,0.0563,0.0566,0.0532,0.0533,0.0531,0.0509,0.0514,0.0512,0.0511,0.0511,0.0479,0.0479,0,0,0,0,0,0,0.0534,0.0534,0.0561,0.0562,0.0547,0.0556,0.0558,0.0564,0.0548,0.0546,0.0567,0.0566,0.0536,0.0533,0.0529,0.0513,0.0512,0.0511,0.051,0.0479,0.0479,0.0479,0,0,0,0,0,0,0.0533,0.0536,0.056,0.0549,0.0552,0.0557,0.0564,0.0564,0.057,0.0552,0.0548,0.0572,0.0536,0.0531,0.0511,0.0511,0.051,0.0508,0.0479,0.0479,0.0479,0.0486,0,0,0,0,0,0,0.0532,0.0536,0.0545,0.0549,0.0552,0.0559,0.0564,0.0565,0.0573,0.0573,0.0555,0.0551,0.0535,0.0513,0.0509,0.0509,0.0507,0.0478,0.0479,0.0479,0.0486,0.0486,0.0487,0,0,0,0,0,0.0531,0.0543,0.0546,0.0549,0.0563,0.0559,0.056,0.0562,0.0573,0.0568,0.0559,0.0551,0.0512,0.0512,0.0507,0.0506,0.0478,0.0479,0.0479,0.0485,0.0486,0.0487,0,0,0,0,0,0,0.054,0.0544,0.0547,0.0562,0.0557,0.0558,0.0568,0.0567,0.0559,0.0562,0.0547,0.0541,0.0527,0.0516,0.0516,0.0499,0.0497,0.0496,0.0503,0.0504,0.0504,0.0489,0.0506,0,0,0,0,0,0.0545,0.0551,0.055,0.0563,0.0566,0.0569,0.0572,0.0567,0.0561,0.0559,0.0547,0.0536,0.0525,0.0513,0.05,0.0486,0.0456,0.0485,0.0486,0.0487,0.0472,0.0417,0.0411,0.048,0.048,0.048,0,0,0.0552,0.0557,0.0562,0.0565,0.0571,0.0561,0.057,0.0573,0.0563,0.0554,0.0545,0.0538,0.0522,0.0507,0.05,0.0497,0.0456,0.0487,0.0487,0.0472,0.0416,0.0409,0.0403,0.048,0.048,0.048,0,0,0.0555,0.0577,0.0573,0.0567,0.0567,0.0568,0.0568,0.0565,0.0566,0.055,0.0547,0.0534,0.0519,0.0502,0.0494,0.049,0.0464,0.0498,0.0483,0.0431,0.0424,0.0418,0.0388,0.0378,0.0495,0.0495,0.0495,0,0.056,0.0558,0.0571,0.0559,0.0559,0.0569,0.0557,0.0558,0.0544,0.0541,0.0545,0.0519,0.0512,0.0485,0.0488,0.0489,0.0461,0.0482,0.043,0.0422,0.0416,0.0386,0.0376,0.0496,0.0495,0.0495,0.0495,0,0.0541,0.0545,0.0548,0.0537,0.0537,0.0532,0.0532,0.0533,0.0542,0.0533,0.0516,0.0501,0.0481,0.0487,0.0486,0.0445,0.0443,0.0438,0.0424,0.0409,0.038,0.0369,0.0496,0.0496,0.0496,0.0496,0,0,0.0524,0.0531,0.053,0.0529,0.0524,0.0524,0.0521,0.0514,0.0513,0.0498,0.0479,0.0469,0.0463,0.0453,0.0451,0.0411,0.0356,0.0406,0.0403,0.037,0.0248,0.0262,0.0252,0.0337,0.0335,0.0333,0.0253,0,0.0499,0.0487,0.0492,0.0484,0.0481,0.0494,0.0492,0.0488,0.0489,0.0473,0.0457,0.044,0.045,0.0444,0.0403,0.0369,0.0324,0.0378,0.0272,0.0269,0.0278,0.0238,0.0326,0.0245,0.0242,0.024,0.0239,0,0.0464,0.0463,0.0453,0.047,0.0471,0.0468,0.0479,0.0477,0.0461,0.0458,0.0431,0.0416,0.0371,0.0378,0.0287,0.0321,0.028,0.0249,0.0245,0.0242,0.0262,0.0259,0.0219,0.022,0.0222,0.0223,0.0224,0,0.0444,0.044,0.0441,0.0438,0.0449,0.0457,0.0472,0.047,0.0475,0.0447,0.0434,0.0377,0.0356,0.0282,0.0234,0.0251,0.0125,0.0141,0.0111,0.0112,0.0122,0.0129,0.0051,0.0051,0.0051,0.0052,0.0052,0,0.0415,0.0417,0.0436,0.0433,0.0443,0.0454,0.0466,0.0472,0.0464,0.0452,0.0427,0.0396,0.0327,0.0258,0.0205,0.0125,0.0098,0.009,0.008,0.0132,0.0141,0.0115,0.0123,0.0049,0.0049,0.005,0.005,0,0.0398,0.0407,0.041,0.0424,0.0436,0.0447,0.0481,0.0486,0.0481,0.0459,0.0447,0.0398,0.0319,0.0246,0.0132,0.01,0.0015,-0.001,0.0054,0.0052,0.0047,0.0057,-0.0055,-0.0056,-0.0056,-0.0056,-0.0057,0,0.039,0.0389,0.0411,0.0424,0.0437,0.0461,0.0482,0.0495,0.0492,0.0456,0.0434,0.0366,0.0324,0.0177,0.0107,-0.0007,-0.0013,-0.0055,-0.0011,0.0028,0.0029,0.004,0.005,-0.0057,-0.0057,-0.0057,-0.0058,0,0.0369,0.0382,0.0389,0.0414,0.0439,0.0465,0.0488,0.0479,0.0477,0.0474,0.0413,0.0347,0.0262,0.0174,0.0088,0.0007,-0.0027,-0.0059,-0.0058,-0.0017,0.0024,0.0028,0.0039,-0.0059,-0.0059,-0.0059,-0.0059,0,0.0358,0.036,0.0373,0.0398,0.0436,0.0449,0.0465,0.0458,0.0455,0.0415,0.0392,0.0314,0.0277,0.0179,0.009,0.0022,0.0018,0.0004,0.0002,0.0002,0.0053,0.0115,0.0032,0,0,0,0,0,0.0334,0.0339,0.0359,0.0377,0.042,0.0438,0.0459,0.0466,0.0454,0.0414,0.0403,0.0325,0.0217,0.0174,0.0106,0.0085,0.0001,0.0004,-0.0017,-0.0066,-0.0065,-0.0013,0,0,0,0,0,0,0.0318,0.033,0.0341,0.036,0.0378,0.0409,0.0422,0.0415,0.0393,0.038,0.0327,0.0314,0.0212,0.0254,0.0106,0.0087,0.0066,-0.0039,-0.0041,-0.0067,-0.0066,-0.0065,-0.0011,0,0,0,0,0]}]]